Wind_Speed
84 85 85 86 86 86 87 87 88 88 89 89 89 89 90 90 91 92 92 93 95 96 98 100 101 103 105 106 108 109 111 112 114 115 117 119 120 122 123 125 127 128 130 131 133 135 136 137 139 140 141 142 143 143 143 143 144 144 144 144 144 144 144 143 142 141 139 137 135 133 131 129 126 125 123 122 120 119 118 116 115 113 112 110 108 106
84 85 85 85 86 86 87 87 87 87 88 88 89 89 90 91 92 93 94 95 97 98 100 102 104 105 107 108 110 111 112 114 115 117 119 120 122 123 125 127 128 130 131 133 134 136 137 138 140 141 141 142 142 142 143 143 143 143 144 144 144 143 143 142 141 139 137 135 133 131 129 127 125 123 122 120 119 118 116 115 113 112 110 108 106 103
84 85 85 85 86 86 86 87 87 87 88 88 89 90 91 92 94 95 96 98 99 100 102 104 105 107 109 110 111 113 114 115 117 119 120 122 124 125 127 128 130 131 133 134 135 137 138 139 140 141 141 142 142 142 142 142 143 143 143 143 143 143 142 141 139 138 136 133 131 129 127 125 123 122 120 119 118 116 115 113 112 110 108 106 104 101
84 84 85 85 86 86 86 87 88 88 89 90 91 92 93 94 95 97 98 100 101 103 104 105 107 108 110 111 113 114 116 117 119 120 122 123 125 127 128 130 131 133 134 135 137 138 139 140 141 141 141 141 141 141 142 142 142 143 143 142 142 141 140 139 138 136 134 131 129 127 125 123 122 121 119 118 117 115 114 112 110 108 106 104 101 98
84 84 85 85 86 86 87 88 88 89 91 92 93 94 95 96 97 99 100 102 103 104 105 107 108 110 111 113 114 116 117 119 120 122 123 125 127 128 130 131 132 134 135 136 137 138 139 140 140 141 141 141 141 141 141 142 142 142 142 141 140 140 139 138 136 134 132 129 127 125 123 122 121 120 118 117 115 114 112 111 109 107 104 102 99 95
84 85 85 86 86 87 88 89 90 91 92 93 95 96 97 98 99 100 102 103 104 106 107 108 109 111 112 114 116 117 119 120 121 123 125 126 128 130 131 133 134 135 136 137 138 139 139 140 140 140 140 140 141 141 141 142 142 141 141 140 139 139 137 136 134 132 130 127 126 124 122 121 120 118 117 116 114 113 111 109 107 105 102 99 96 93
85 86 86 87 87 88 89 90 91 92 93 95 96 98 99 100 101 102 103 104 106 107 108 110 111 112 114 116 117 119 120 122 123 124 126 128 129 131 133 134 135 136 137 138 138 139 139 139 139 139 140 140 141 141 141 141 141 141 140 139 138 137 136 134 132 130 128 126 124 123 121 120 119 117 116 114 113 111 109 107 105 102 99 96 93 90
86 87 87 88 89 90 91 92 92 94 95 96 98 99 101 102 103 104 105 106 107 108 110 111 113 114 116 117 118 120 121 123 124 126 127 129 131 132 134 135 136 137 138 138 138 138 138 138 139 139 139 140 141 141 141 141 141 140 139 139 138 136 134 132 130 128 126 124 123 121 120 119 118 116 115 113 111 109 107 105 103 100 97 94 90 87
86 87 88 89 90 91 92 93 94 95 96 97 99 100 102 103 105 106 107 108 109 110 111 112 114 116 117 119 120 121 123 124 126 128 129 131 132 133 135 136 137 138 138 138 138 138 138 138 138 139 139 140 140 140 140 140 140 140 139 138 137 135 133 130 128 126 124 122 121 120 119 118 117 115 113 112 110 108 106 103 100 97 94 91 88 85
87 88 89 90 91 92 93 94 95 97 98 99 100 101 103 104 106 107 109 110 111 112 113 114 115 117 118 120 122 123 125 126 128 129 130 132 133 134 135 136 137 138 138 138 138 137 137 137 138 139 139 139 140 140 140 140 139 139 139 137 136 134 131 129 126 124 123 121 120 119 118 117 115 114 112 110 108 106 103 101 97 94 91 88 85 82
89 90 91 92 93 93 94 95 96 98 99 100 101 103 104 105 106 108 109 111 112 114 114 115 116 118 119 121 123 125 127 128 130 131 132 133 134 135 136 137 137 137 137 137 137 137 137 137 138 138 139 139 139 139 139 139 139 139 138 136 134 132 130 127 125 123 122 120 119 118 116 115 114 112 110 108 106 104 101 98 95 91 88 85 82 80
90 91 92 93 94 95 96 97 98 99 100 102 103 104 106 107 108 109 110 112 113 115 116 117 118 119 120 122 124 126 128 130 131 132 134 134 135 136 136 137 137 137 137 137 137 137 137 138 138 138 139 139 139 139 139 139 139 138 137 135 133 130 128 126 124 122 121 119 118 117 115 113 112 110 108 106 103 101 98 95 92 88 85 82 80 78
92 92 93 94 95 96 97 99 100 101 102 103 104 105 106 108 109 110 111 112 114 115 116 118 119 120 122 123 124 126 129 131 132 133 134 135 135 136 136 136 137 137 137 137 137 137 138 138 138 139 139 139 139 139 139 138 138 137 136 133 131 129 126 124 123 121 120 119 117 116 114 112 110 108 106 103 101 98 95 92 89 85 83 80 78 76
93 94 95 96 97 98 99 100 101 102 103 104 105 106 107 108 110 111 112 113 115 116 117 119 120 122 123 124 126 127 129 131 133 134 135 135 135 135 135 135 136 137 137 137 138 138 138 139 139 139 139 139 139 139 139 138 137 136 134 131 129 127 125 123 121 120 119 118 116 114 112 110 108 106 104 101 98 95 92 89 86 83 81 78 76 74
94 95 96 97 98 99 100 101 102 103 104 105 106 107 108 109 111 112 113 114 116 117 118 120 122 123 124 125 127 128 129 131 132 133 134 135 135 135 134 135 136 137 137 138 138 139 139 139 139 139 139 139 139 139 138 138 136 134 132 129 127 125 123 121 120 119 118 116 114 113 111 109 106 104 101 99 96 93 90 87 84 81 79 76 74 72
95 96 97 98 99 100 101 102 102 103 105 106 107 108 109 110 111 113 114 115 117 118 119 121 122 124 126 127 128 128 129 130 131 132 133 133 134 134 134 134 135 137 138 138 139 139 139 139 139 139 139 139 139 139 138 137 135 132 130 127 125 123 121 120 119 117 116 114 112 110 108 106 104 101 98 96 93 90 87 85 82 80 77 75 73 70
96 97 97 99 100 101 102 103 103 104 106 107 108 109 110 111 112 114 115 116 117 119 120 121 122 124 125 127 128 129 129 129 130 131 131 132 133 133 134 134 135 137 138 139 139 139 139 139 140 139 139 139 139 138 137 135 133 130 128 126 123 122 120 119 117 116 114 112 110 108 105 103 100 98 95 92 90 87 85 82 80 78 75 73 71 69
96 97 98 99 100 101 102 103 104 105 107 108 109 110 111 112 113 115 116 117 118 119 121 122 123 124 125 126 127 128 128 127 127 129 130 131 132 133 133 134 136 137 138 139 139 139 140 140 140 140 140 139 139 137 136 133 131 128 126 124 122 120 119 117 116 114 112 110 108 105 102 100 97 94 91 89 87 84 82 80 78 76 73 71 69 67
97 98 99 100 101 102 103 104 105 106 107 109 110 111 112 114 115 116 117 118 119 120 121 122 123 124 125 125 126 126 126 126 126 127 128 130 131 133 134 135 136 138 139 140 140 140 140 140 140 140 140 139 138 136 134 131 129 126 124 122 120 119 118 116 114 112 110 108 105 102 99 96 94 91 88 86 84 82 80 77 75 73 71 69 67 65
97 99 99 100 101 103 104 105 106 107 108 110 111 112 113 115 116 117 118 119 120 121 122 123 124 125 125 124 124 125 125 124 125 126 127 129 131 132 134 135 137 138 140 140 141 141 141 141 141 141 140 139 137 135 132 129 127 124 122 121 119 118 116 115 113 110 108 105 102 99 96 93 90 88 85 83 81 79 77 75 73 71 69 67 65 63
98 99 100 101 102 103 105 106 107 109 109 111 112 113 114 116 117 118 119 120 121 122 123 123 124 124 124 123 123 123 123 123 124 126 128 129 131 133 134 135 137 139 140 141 141 142 142 142 142 141 140 139 136 133 130 127 125 123 121 119 118 116 115 113 111 108 105 102 99 96 93 90 87 85 83 81 79 77 75 73 71 69 67 65 62 60
99 100 101 102 103 104 106 107 108 110 111 112 113 114 115 116 117 118 119 120 121 122 122 123 123 123 123 122 122 122 123 123 124 126 128 130 131 133 134 135 137 139 141 142 143 143 143 143 143 142 140 138 135 131 128 126 123 121 120 118 117 115 114 111 109 106 103 100 96 93 90 87 85 82 80 78 76 75 73 71 69 67 65 62 60 58
99 101 102 104 105 106 107 108 110 111 112 113 113 114 115 116 117 118 119 119 120 121 121 122 122 122 122 122 122 122 123 123 125 126 128 130 132 133 134 136 138 140 141 142 143 144 144 144 143 142 139 136 133 130 127 124 122 121 119 117 116 114 112 110 107 104 100 97 93 90 87 85 82 80 78 76 74 72 70 69 67 65 62 60 58 56
101 102 103 105 106 107 108 109 110 112 113 113 114 115 116 116 117 117 118 118 119 119 119 120 121 121 122 122 122 123 124 125 126 127 129 131 133 134 135 136 138 140 142 143 144 145 145 145 143 141 138 135 131 128 126 123 122 120 118 117 115 113 110 108 105 101 98 94 91 88 85 82 80 78 76 74 72 70 68 66 64 62 60 58 56 54
102 104 105 106 107 108 109 110 111 112 113 114 114 115 116 116 117 117 117 117 117 117 118 118 119 120 121 122 123 124 125 126 127 129 130 132 134 135 136 137 139 141 142 143 144 145 145 145 143 140 137 133 130 127 125 123 121 120 118 116 114 111 109 106 102 99 95 92 88 85 83 80 78 76 74 72 70 68 66 64 62 60 58 56 54 52
104 105 106 107 108 109 110 111 112 113 113 114 114 115 115 115 115 115 115 115 115 116 116 117 118 120 121 123 124 125 126 127 128 130 131 133 135 136 137 137 139 140 142 144 144 145 145 144 142 139 135 132 128 126 124 122 121 119 117 115 113 110 107 103 100 96 93 89 86 83 81 79 76 74 72 70 68 66 64 62 60 58 56 54 52 51
105 106 107 108 109 110 111 111 112 112 113 113 113 113 113 113 113 113 113 114 114 114 115 116 118 120 122 124 125 127 128 129 130 131 132 134 136 137 138 138 139 140 142 143 144 144 144 143 141 137 134 131 127 125 123 121 120 118 116 113 111 107 104 101 97 93 90 87 84 82 79 77 75 73 71 69 66 64 62 60 58 56 54 52 51 49
106 107 108 109 110 110 111 111 111 112 112 112 112 111 111 111 110 111 111 113 113 114 115 116 118 120 122 125 126 128 129 130 131 132 133 134 136 138 138 139 139 140 142 143 143 143 142 140 138 135 132 129 126 124 122 120 118 116 114 111 108 104 101 97 94 91 88 85 82 80 78 75 73 71 69 67 65 63 61 59 57 55 53 51 49 47
107 108 109 109 109 110 110 110 110 110 110 110 109 109 109 109 109 109 111 112 113 114 115 117 119 121 123 125 127 129 130 131 131 132 133 135 137 138 138 139 140 140 141 142 142 141 139 137 135 133 130 127 125 122 120 118 116 114 111 108 105 101 98 94 91 88 85 83 80 78 76 74 72 70 67 65 63 61 59 57 55 53 51 49 47 46
107 108 108 108 109 109 109 109 108 108 108 107 107 107 107 108 108 109 110 112 113 115 116 118 120 122 124 126 128 130 131 132 132 133 134 136 138 139 139 140 140 140 140 140 140 139 137 134 131 129 127 125 123 121 118 116 114 111 108 105 101 98 94 91 88 86 83 81 79 77 74 72 70 68 66 64 62 60 58 56 54 52 50 48 46 44
107 107 107 107 107 107 107 106 106 106 105 105 105 106 106 107 108 109 111 112 114 116 118 120 122 124 125 127 129 131 132 133 133 133 135 137 138 139 139 140 140 140 138 137 137 135 134 131 129 126 124 123 121 119 116 114 111 108 105 101 98 94 91 89 86 84 81 79 77 75 73 71 69 66 64 62 60 58 56 54 52 50 48 47 45 43
105 105 105 104 104 104 104 104 103 103 103 104 104 105 107 108 109 110 112 113 115 117 119 121 123 125 126 128 129 131 133 134 134 134 135 137 138 139 139 140 140 139 137 134 133 131 130 128 126 124 121 120 118 116 113 111 108 104 101 98 95 92 89 86 84 82 80 78 76 74 71 69 67 65 63 61 59 57 55 53 51 49 47 45 43 42
103 102 102 102 102 102 102 101 102 102 103 104 105 106 107 109 110 112 113 115 116 118 120 122 124 126 128 129 131 132 133 134 135 135 136 137 139 139 139 139 139 138 135 132 130 128 126 124 123 121 119 117 115 113 110 107 104 101 98 94 92 89 87 84 82 80 78 76 74 72 70 68 66 64 62 60 58 56 54 52 50 48 46 44 42 41
100 99 99 99 99 100 100 100 101 102 103 104 106 107 108 110 112 113 115 116 118 120 121 123 125 127 129 130 132 133 134 135 135 136 137 138 139 140 139 139 137 136 133 131 128 126 123 121 120 118 116 114 112 110 107 104 101 98 94 91 89 87 85 83 81 79 77 75 73 71 69 67 64 62 60 58 56 55 53 51 49 47 45 43 41 39
97 97 97 97 98 98 99 100 101 102 104 105 107 108 110 111 113 115 117 118 120 122 123 124 126 127 129 130 132 134 135 136 136 137 138 138 139 139 139 137 135 133 131 128 126 124 122 119 117 115 114 111 109 106 103 101 98 94 91 89 86 84 83 81 79 77 75 73 71 69 67 65 63 61 59 57 55 53 51 49 47 46 43 42 40 38
95 95 96 96 97 98 99 100 102 103 105 106 108 109 111 113 115 116 118 120 122 124 125 126 127 128 129 130 132 134 135 136 137 138 138 138 138 138 137 135 132 130 128 125 123 121 119 117 115 113 110 108 105 103 100 97 94 91 89 86 84 82 81 79 78 76 74 72 70 67 65 63 61 59 57 55 53 51 50 48 46 44 42 40 38 37
93 94 95 96 97 98 99 101 103 104 106 108 109 111 113 115 116 118 120 122 124 125 127 128 129 130 130 131 132 134 135 136 137 138 138 138 137 136 135 133 130 127 125 123 121 119 117 115 112 110 107 104 102 99 97 94 92 89 87 84 82 81 79 77 76 74 72 70 68 66 64 61 59 57 55 53 51 49 48 46 44 43 41 39 37 35
93 94 95 96 97 99 100 102 104 106 107 109 111 113 115 117 118 120 122 124 125 127 128 129 130 131 132 133 133 134 136 137 137 138 137 137 136 134 132 130 127 124 122 120 118 116 114 112 110 107 104 101 98 96 94 92 89 87 85 83 81 79 77 75 74 72 70 68 66 64 62 59 57 55 53 51 49 47 46 44 43 41 39 37 35 34
93 94 96 97 98 100 101 103 105 107 109 111 113 115 116 118 120 122 124 125 127 128 129 130 131 132 133 134 134 135 136 137 137 137 137 136 134 132 129 127 125 122 119 117 115 113 111 109 106 103 101 98 95 93 91 89 87 85 83 81 79 77 75 73 71 70 68 66 64 62 60 57 55 53 51 49 47 45 43 42 40 39 37 36 34 32
94 95 96 98 99 101 103 105 107 108 110 112 114 116 118 120 122 124 125 127 128 129 130 131 132 133 134 135 135 136 137 137 137 137 136 134 132 129 127 124 122 120 118 115 113 111 109 106 103 100 97 94 92 90 88 86 85 83 82 80 78 75 73 71 69 67 65 64 62 60 58 56 53 51 49 47 45 43 41 40 38 37 35 34 32 31
95 96 98 99 101 102 104 106 108 110 111 113 115 117 119 121 123 125 126 128 129 130 131 132 133 134 135 135 136 136 137 137 137 136 135 132 130 127 124 122 119 117 115 113 111 109 106 103 100 97 94 91 89 88 86 84 83 81 80 78 76 74 71 68 66 64 63 61 60 58 56 54 52 50 48 46 44 42 40 38 36 35 34 32 31 30
96 97 99 100 102 104 106 107 109 111 113 115 116 118 120 122 124 125 127 128 129 131 132 133 134 135 136 137 137 137 137 137 136 135 133 130 127 125 122 119 117 115 113 111 109 106 103 100 97 94 92 89 87 86 84 82 81 79 77 76 74 71 69 66 63 61 60 58 57 56 54 52 51 49 47 45 43 41 38 37 35 34 32 31 30 28
97 99 100 102 103 105 107 109 110 112 114 116 118 119 121 122 124 125 127 128 129 131 132 133 134 135 136 137 138 138 137 136 135 133 130 128 125 122 120 117 115 113 111 108 106 103 100 98 95 92 89 87 85 84 82 81 79 77 75 73 71 69 67 65 62 60 58 56 55 54 52 51 49 48 46 44 42 40 38 36 34 32 31 29 28 27
98 100 101 103 105 106 108 110 112 113 115 117 118 120 122 123 124 126 127 128 129 131 132 133 134 135 136 137 138 138 137 136 133 131 128 125 123 120 118 115 113 111 108 106 103 101 98 95 93 90 88 85 84 82 80 79 77 75 73 71 69 67 65 63 61 58 56 54 53 51 50 49 48 46 45 43 41 39 37 35 33 31 30 28 27 26
99 101 103 104 106 108 109 111 113 114 116 118 119 121 122 124 125 126 127 128 130 131 131 132 133 134 136 136 137 137 136 134 132 129 126 123 121 118 116 114 111 109 106 103 100 98 96 94 92 89 86 84 82 80 78 77 75 73 71 69 67 65 63 61 59 57 55 53 51 50 48 47 46 45 44 42 40 38 36 34 32 30 29 27 26 25
101 102 104 106 107 109 110 112 114 115 117 118 120 121 123 124 125 127 128 129 130 131 131 132 133 134 135 135 136 135 134 132 130 127 125 122 119 117 114 112 110 107 104 101 98 95 93 91 90 88 86 83 81 78 76 75 73 71 69 67 65 63 61 59 58 56 54 52 50 48 46 45 44 43 42 41 40 38 36 34 31 29 28 26 24 23
102 103 105 107 108 110 112 113 115 116 118 119 121 122 123 125 126 127 128 129 130 131 131 132 132 133 133 134 133 132 131 129 127 125 122 120 118 115 113 111 108 105 102 98 95 93 91 89 88 87 85 83 81 78 75 73 71 69 68 65 63 62 60 58 56 55 53 51 49 47 45 43 42 41 40 39 38 37 35 33 31 29 27 25 24 22
103 104 106 108 109 111 113 114 116 117 118 120 121 123 124 125 126 127 128 129 130 130 131 131 132 132 132 132 130 129 127 125 123 121 119 117 115 113 111 109 106 103 100 96 93 91 88 87 86 85 84 83 81 78 75 72 70 68 66 64 62 60 58 56 55 53 52 50 48 45 43 42 40 39 38 38 37 35 34 32 30 28 26 24 23 21
104 105 107 109 110 112 113 115 116 118 119 121 122 124 125 126 127 128 128 129 129 130 130 131 131 131 131 129 128 125 123 121 120 118 116 114 112 111 109 106 104 101 98 95 92 89 86 84 83 82 81 81 79 77 75 72 69 67 64 62 60 58 56 55 53 52 50 49 47 44 42 40 38 37 36 36 35 34 32 30 29 27 25 23 22 20
105 106 108 109 111 112 114 115 117 118 120 121 123 124 125 127 127 128 128 129 129 129 130 130 130 130 129 127 125 122 120 118 116 114 113 111 109 108 106 104 101 99 97 94 91 88 86 83 81 79 78 78 77 76 74 72 69 65 63 60 58 56 54 53 51 50 49 48 46 43 41 38 37 35 34 34 33 32 31 29 28 26 24 22 21 19
106 107 109 110 111 113 114 116 117 119 120 122 123 125 126 127 127 128 128 128 129 129 129 129 128 127 126 124 121 119 117 115 113 112 110 108 106 105 103 100 98 96 95 93 90 88 86 83 81 79 76 75 74 74 73 71 68 65 62 59 56 54 52 50 49 48 47 46 45 42 40 37 35 33 32 32 31 31 30 29 27 25 23 22 20 19
Wind_Direction
299 299 300 300 300 301 301 301 301 301 301 302 302 302 303 303 303 303 304 304 304 305 305 305 306 306 306 307 307 308 308 308 309 309 309 310 310 311 311 311 312 312 313 313 313 314 314 314 314 315 315 315 315 315 316 316 316 316 317 317 317 318 318 319 319 320 320 320 320 320 320 320 320 320 319 319 319 318 318 318 318 317 317 317 317 317
299 300 300 301 301 301 301 301 301 302 302 302 303 303 303 303 304 304 304 304 304 305 305 306 306 307 307 307 308 308 308 309 309 309 310 310 310 311 311 312 312 312 313 313 313 314 314 314 314 315 315 315 315 315 316 316 316 317 317 317 318 318 319 319 320 320 320 321 321 321 320 320 320 320 319 319 319 318 318 318 317 317 317 317 317 317
300 300 301 301 301 301 301 302 302 302 302 303 303 303 304 304 304 304 304 305 305 305 306 306 307 307 307 308 308 308 309 309 309 310 310 310 311 311 312 312 312 313 313 313 314 314 314 314 315 315 315 315 315 315 316 316 316 317 317 318 319 319 320 320 321 321 321 321 321 321 321 320 320 320 320 319 319 318 318 318 317 317 317 317 317 317
300 301 301 301 301 301 302 302 302 303 303 303 303 304 304 304 304 304 305 305 305 306 306 306 307 307 308 308 308 309 309 309 310 310 310 311 311 311 312 312 312 313 313 313 314 314 314 314 315 315 315 315 315 316 316 316 317 317 318 319 319 320 320 321 321 321 321 321 321 321 321 321 320 320 320 319 319 318 318 318 317 317 317 317 317 317
300 301 301 301 301 301 302 302 302 303 303 303 303 304 304 304 304 305 305 305 306 306 306 307 307 308 308 308 309 309 309 310 310 310 311 311 311 312 312 312 313 313 313 313 314 314 314 314 315 315 315 315 316 316 316 317 317 318 319 319 320 321 321 321 322 322 322 322 321 321 321 321 320 320 320 319 319 318 318 318 317 317 317 317 317 317
300 301 301 301 301 302 302 302 303 303 303 303 304 304 304 304 304 305 305 305 306 306 307 307 308 308 308 309 309 309 310 310 310 311 311 311 312 312 312 312 313 313 313 314 314 314 314 315 315 315 315 316 316 316 317 317 318 319 320 320 321 321 322 322 322 322 322 322 322 321 321 321 320 320 320 319 319 318 318 318 317 317 317 317 317 317
300 300 300 301 301 301 302 302 303 303 303 304 304 304 304 304 304 305 305 306 306 307 307 307 308 308 308 309 309 309 310 310 311 311 311 311 312 312 312 312 313 313 313 314 314 314 314 315 315 315 316 316 316 317 318 318 319 320 320 321 321 322 322 322 322 322 322 322 322 322 321 321 320 320 319 319 319 318 318 318 317 317 317 317 317 317
300 300 300 301 301 302 302 302 303 303 303 304 304 304 304 304 305 305 305 306 306 307 307 308 308 308 309 309 309 310 310 310 311 311 311 311 312 312 312 313 313 313 314 314 314 314 315 315 315 316 316 316 317 318 318 319 320 321 321 322 322 322 323 323 323 323 323 322 322 322 321 321 320 320 319 319 319 318 318 318 317 317 317 317 317 317
300 300 300 301 301 302 302 302 303 303 303 304 304 304 305 305 305 305 306 306 307 307 307 308 308 309 309 309 310 310 310 311 311 311 311 312 312 312 313 313 313 313 314 314 314 314 315 315 316 316 317 317 318 319 319 320 321 322 322 322 323 323 323 323 323 323 323 322 322 322 321 321 320 320 319 319 318 318 318 318 317 317 317 317 317 317
300 300 301 301 301 302 302 303 303 303 303 304 304 304 305 305 306 306 306 307 307 307 308 308 309 309 310 310 310 310 311 311 311 311 312 312 312 313 313 313 313 314 314 314 314 315 315 315 316 317 317 318 319 320 320 321 322 322 323 323 323 323 323 323 323 323 323 322 322 322 321 321 320 320 319 319 318 318 318 318 317 317 317 317 317 317
300 300 301 301 301 302 302 303 303 303 303 303 304 304 304 305 306 307 307 307 307 308 308 309 309 310 310 311 311 311 311 311 311 312 312 312 313 313 313 313 313 313 314 314 314 315 315 316 317 317 318 319 320 321 322 322 323 323 323 324 324 324 324 324 323 323 323 322 322 321 321 320 320 319 319 319 318 318 318 317 317 317 317 317 317 317
300 300 301 301 302 302 302 302 303 303 303 304 304 304 305 305 306 307 307 308 308 308 309 309 310 310 311 311 311 311 311 312 312 312 312 313 313 313 313 313 313 314 314 314 315 315 316 317 318 318 319 320 321 322 322 323 323 324 324 324 324 324 324 324 323 323 323 322 322 321 321 320 320 319 319 318 318 318 317 317 317 317 317 317 317 316
300 300 301 301 302 302 302 302 303 303 303 304 304 305 305 306 306 307 307 308 308 309 309 310 310 310 311 311 311 312 312 312 312 312 312 313 313 313 313 314 314 314 315 315 316 316 317 318 319 319 320 321 322 323 323 324 324 324 324 324 324 324 324 324 323 323 323 322 322 321 321 320 320 319 319 318 318 318 317 317 317 317 317 317 317 316
300 300 301 301 301 302 302 302 303 303 304 304 305 305 306 306 306 307 308 308 309 309 310 310 311 311 311 311 311 312 312 312 312 312 313 313 313 314 314 314 315 315 316 316 317 317 318 319 320 320 321 322 323 323 324 324 324 324 324 324 324 324 324 323 323 323 322 322 322 321 321 320 320 319 319 318 318 317 317 317 317 317 317 317 317 316
300 301 301 301 301 302 302 302 303 303 304 304 305 305 306 306 307 307 308 309 309 310 310 311 311 311 311 311 312 312 312 313 313 313 313 313 314 314 315 315 315 316 316 317 318 318 319 320 321 321 322 323 324 324 324 324 325 325 324 324 324 324 324 323 323 323 322 322 321 321 321 320 319 319 319 318 318 318 317 317 317 317 317 317 317 317
300 300 301 301 301 302 302 303 303 304 304 304 305 305 306 307 307 308 309 309 310 310 311 311 311 311 311 311 312 312 313 313 313 313 313 314 314 315 315 316 317 317 317 318 319 319 320 321 321 322 323 324 324 324 325 325 325 325 325 324 324 324 323 323 323 322 322 322 321 321 320 320 319 319 318 318 318 318 318 317 318 318 318 318 318 317
300 300 301 301 301 302 302 303 303 304 304 305 305 306 306 307 308 308 309 309 310 310 311 311 311 311 312 312 312 312 313 313 313 313 314 314 315 315 316 317 318 318 318 319 319 320 321 322 322 323 324 324 324 325 325 325 325 325 325 324 324 324 323 323 323 322 322 321 321 320 320 320 319 319 318 318 318 318 318 318 318 318 318 318 318 318
300 300 301 301 302 302 303 303 304 304 304 305 305 306 307 307 308 309 309 310 310 310 310 311 311 311 311 312 312 312 313 313 313 314 314 315 315 316 317 318 318 319 319 319 320 321 321 322 323 324 324 324 325 325 325 325 325 325 324 324 324 323 323 323 322 322 322 321 321 320 320 319 319 318 318 318 318 318 318 318 318 318 318 318 318 318
300 300 301 301 302 302 303 303 304 304 305 305 306 307 307 308 308 309 309 310 310 310 310 310 311 311 311 311 312 312 313 313 314 314 315 315 316 317 317 318 319 319 320 320 321 322 322 323 323 324 324 325 325 325 325 325 325 325 324 324 324 323 323 322 322 322 321 321 321 320 320 319 319 318 318 318 318 318 318 318 318 319 318 318 319 319
300 300 301 301 302 302 303 303 304 304 305 306 306 307 308 308 309 309 309 310 310 310 310 310 310 311 311 311 312 312 313 314 314 315 315 316 317 317 318 319 320 320 321 321 322 322 323 324 324 324 325 325 325 325 325 325 325 325 324 324 323 323 323 322 322 322 321 321 320 320 320 319 319 319 319 319 319 319 319 319 319 319 319 319 319 319
300 300 301 301 302 303 303 303 304 305 305 306 307 308 308 309 309 309 309 310 310 310 310 310 310 311 311 311 312 313 313 314 315 316 316 317 317 318 319 320 321 321 322 322 323 323 324 324 324 325 325 325 325 325 325 325 325 324 324 324 323 323 323 322 322 321 321 321 320 320 320 319 319 319 319 319 319 319 319 319 319 319 319 319 319 319
300 300 301 301 302 303 303 304 304 305 306 307 307 308 308 309 309 309 309 310 310 310 310 310 311 311 311 312 312 313 314 314 315 316 317 318 318 319 320 321 322 322 323 323 323 324 324 324 325 325 325 325 325 325 325 325 325 324 324 324 323 323 322 322 322 321 321 321 321 320 320 320 320 320 320 320 320 320 320 320 320 320 320 320 320 320
300 300 301 302 302 303 303 304 305 305 306 307 307 308 308 309 309 309 309 310 310 310 310 310 311 311 311 312 313 313 314 315 316 317 318 319 320 320 321 322 323 323 323 324 324 324 324 324 325 325 325 325 325 325 325 325 325 324 324 323 323 323 322 322 322 321 321 321 321 321 320 320 320 321 321 321 321 321 320 320 320 320 320 321 320 320
300 301 301 302 302 303 304 305 305 306 306 307 307 308 308 308 309 309 309 309 310 310 310 311 311 311 312 313 313 314 315 316 317 318 319 320 321 321 322 323 323 324 324 324 324 324 325 325 325 325 325 325 325 325 325 325 325 324 324 323 323 323 322 322 322 322 321 321 321 321 321 321 321 322 322 322 322 321 321 321 321 321 321 321 321 320
300 301 301 302 303 303 304 305 305 306 307 307 307 308 308 308 309 309 309 309 310 310 311 311 312 312 313 314 315 315 316 317 318 320 321 321 322 322 323 323 324 324 324 324 325 325 325 325 325 325 325 325 325 325 325 325 325 324 324 323 323 323 322 322 322 322 322 322 322 322 322 322 322 322 322 322 322 322 322 321 321 321 322 322 321 320
300 301 302 302 303 304 304 305 306 306 306 307 307 308 308 308 309 309 309 309 310 311 311 312 313 313 314 315 316 317 318 319 320 321 322 322 323 323 323 324 324 324 324 325 325 325 325 325 325 325 325 325 325 325 325 325 324 324 324 323 323 323 322 322 322 322 322 322 322 322 323 323 323 323 323 323 323 322 322 322 322 322 322 322 321 321
301 302 302 303 304 304 305 305 306 306 307 307 307 308 308 308 309 309 309 310 311 311 312 313 314 315 315 316 317 318 319 320 321 321 322 323 323 323 323 324 324 325 325 325 325 325 325 325 325 325 325 325 325 325 325 325 324 324 323 323 323 323 322 322 322 322 322 323 323 323 323 324 324 324 324 324 323 323 323 323 323 323 323 322 322 321
301 302 303 303 304 304 305 305 306 306 307 307 307 308 308 308 309 309 310 310 311 312 313 314 315 316 317 318 319 320 320 321 322 322 323 323 323 323 324 324 325 325 325 325 325 325 325 325 325 325 325 325 325 325 325 324 324 323 323 323 323 323 322 322 323 323 323 323 324 324 324 324 325 325 324 324 324 324 324 324 324 323 323 323 322 322
302 302 303 303 304 304 305 305 306 306 307 307 308 308 308 309 309 310 310 311 312 313 314 315 316 317 319 319 320 320 321 321 322 322 323 323 323 324 324 324 325 325 325 325 325 325 325 325 325 325 325 325 325 325 324 324 323 323 323 323 323 323 323 323 323 323 324 324 324 325 325 325 325 325 325 325 325 324 324 324 324 324 324 324 323 322
302 303 303 304 304 305 305 306 306 306 307 307 308 308 308 309 310 310 311 312 313 315 316 317 318 319 320 320 321 321 322 322 322 323 323 323 323 324 324 324 324 325 325 325 325 325 325 325 325 325 325 324 324 324 324 323 323 323 323 323 323 323 323 323 324 324 324 325 325 325 325 326 326 326 325 325 325 325 325 325 325 325 325 324 324 323
302 303 303 304 304 305 305 306 306 307 307 308 308 308 309 310 310 311 312 313 315 316 317 318 319 320 320 321 322 322 322 322 323 323 323 323 323 324 324 324 324 325 325 325 325 325 324 324 324 324 324 324 324 324 323 323 323 323 323 323 323 323 324 324 324 325 325 325 326 326 326 326 326 326 326 326 326 326 326 326 325 326 325 325 325 324
303 303 304 304 305 305 306 306 307 307 307 308 308 309 310 310 311 312 314 315 316 317 318 319 320 320 321 322 322 322 322 322 323 323 323 323 323 323 324 324 324 324 325 325 325 325 325 324 324 324 324 324 324 324 323 323 323 323 323 323 324 324 325 325 325 326 326 326 326 326 326 326 326 326 326 326 326 326 326 326 326 326 326 326 326 325
303 304 304 304 305 305 306 306 307 308 308 309 309 310 311 312 313 314 315 316 317 318 319 320 321 321 322 322 322 322 322 323 323 323 323 323 323 323 324 324 324 324 325 325 325 325 325 325 324 324 324 324 324 323 323 323 323 323 324 324 325 325 325 326 326 326 326 327 327 327 327 327 327 327 327 327 327 327 327 327 327 327 327 327 326 326
303 304 304 305 305 306 306 307 308 308 309 310 310 311 312 313 314 315 316 317 318 319 320 321 321 322 322 323 323 323 323 323 323 323 323 323 323 323 324 324 324 325 325 325 325 325 325 325 324 324 324 324 323 323 323 323 323 324 324 325 326 326 326 327 327 327 327 327 327 327 327 327 327 327 327 328 327 327 327 327 327 327 327 327 327 327
304 304 305 305 306 306 307 308 309 309 310 311 312 313 314 315 316 316 317 318 319 320 320 321 322 322 323 323 323 323 322 322 323 323 323 323 323 323 324 324 324 325 325 325 325 325 325 325 324 324 324 324 323 323 323 324 324 325 325 326 326 327 327 327 327 327 327 327 327 327 327 328 328 328 328 328 328 328 327 327 327 327 327 328 328 327
304 304 305 306 306 307 308 309 310 311 311 312 313 314 315 316 317 317 318 319 320 321 321 322 322 322 322 323 322 322 322 322 322 323 323 323 323 324 324 324 325 325 325 325 325 325 325 324 324 324 324 324 324 324 324 324 325 325 326 327 327 328 328 328 328 328 328 328 328 328 328 328 328 328 328 328 328 328 327 327 327 327 328 328 328 327
304 305 306 306 307 308 309 310 311 312 313 314 314 315 316 317 318 319 319 320 321 321 322 322 322 322 322 322 322 322 322 322 322 322 323 323 324 324 324 324 325 325 325 325 325 325 325 324 324 324 324 324 324 325 325 325 326 326 327 327 328 328 328 328 328 328 328 328 328 328 328 328 328 328 328 328 328 328 327 327 327 327 328 328 328 327
305 306 307 308 309 310 311 312 313 314 314 315 316 316 317 318 319 319 320 321 321 322 322 322 322 322 322 322 322 322 322 322 322 322 323 323 324 324 324 325 325 325 325 325 325 325 325 324 324 324 325 325 325 325 326 326 327 327 328 328 328 329 329 329 329 329 329 328 328 328 328 328 328 328 328 328 328 328 327 327 327 327 327 328 328 327
306 307 308 309 310 312 313 313 314 315 315 316 317 317 318 319 319 320 321 321 322 322 322 322 322 322 322 322 322 322 322 322 322 323 323 324 324 324 325 325 325 325 325 325 325 325 325 325 325 325 325 325 326 326 327 327 328 328 328 328 329 329 329 329 329 329 329 329 328 328 328 328 328 328 328 328 328 328 328 327 327 327 327 327 327 327
308 309 310 311 312 313 314 314 315 315 316 317 317 318 319 319 320 321 321 321 322 322 322 322 322 322 322 322 322 322 322 322 323 323 323 324 324 324 325 325 325 325 325 325 325 325 325 325 325 325 326 326 327 327 328 328 328 329 329 329 329 329 330 330 330 330 329 329 329 328 328 328 328 328 328 328 328 328 328 328 327 327 327 327 327 327
309 310 312 312 313 314 314 315 315 316 317 317 318 319 319 320 320 321 321 322 322 322 322 322 321 321 321 321 322 322 322 322 323 323 324 324 324 325 325 325 325 325 325 325 325 325 325 325 326 326 327 327 328 328 328 329 329 329 329 329 329 329 330 330 330 330 330 329 329 329 329 329 329 329 329 329 329 329 329 328 328 328 328 327 327 327
311 312 313 314 314 314 315 315 316 317 317 318 318 319 320 320 321 321 321 321 321 321 321 321 321 321 321 321 322 322 322 323 323 323 324 324 324 325 325 325 325 325 325 325 325 325 326 326 326 327 327 328 329 329 329 329 329 329 329 329 329 330 330 330 331 330 330 330 330 330 330 330 330 330 330 330 330 330 330 330 329 329 328 328 328 327
312 313 314 314 314 315 315 316 316 317 318 318 319 319 320 320 321 321 321 321 321 321 321 321 321 321 321 321 322 322 323 323 323 324 324 324 325 325 325 325 325 325 325 326 326 326 326 327 327 328 328 329 329 330 330 330 329 330 330 330 330 330 331 331 331 331 331 331 331 331 331 331 331 331 330 330 331 331 331 331 331 330 330 329 328 328
313 313 314 314 315 315 315 316 317 317 318 318 319 319 320 320 320 321 321 320 320 320 320 320 321 321 321 321 322 322 323 323 323 324 324 324 325 325 325 325 325 325 326 326 326 327 327 328 328 328 329 329 330 330 330 330 330 330 330 331 331 331 332 332 332 332 332 332 332 332 332 332 332 331 331 331 331 332 332 332 332 331 331 330 329 329
313 314 314 314 315 315 316 316 317 317 318 318 319 319 320 320 320 320 320 320 320 320 320 320 320 321 321 321 322 322 323 323 323 324 324 325 325 325 325 325 325 326 326 326 327 328 328 329 329 329 330 330 330 330 330 330 330 331 331 331 332 332 332 333 333 333 333 333 333 334 334 333 333 332 332 332 332 332 333 333 333 333 332 331 330 330
313 314 314 314 315 315 316 316 317 317 318 318 319 319 319 320 320 320 320 320 320 320 320 320 320 321 321 321 322 322 323 323 323 324 324 325 325 325 325 325 325 326 326 327 328 329 329 330 330 330 330 330 330 330 330 331 331 331 332 332 333 333 334 334 334 334 334 334 334 335 335 334 334 333 333 332 332 333 333 334 334 334 333 332 332 331
313 314 314 315 315 316 316 317 317 317 318 318 319 319 319 319 319 319 319 319 319 320 320 320 320 321 321 322 322 322 323 323 323 324 324 325 325 325 325 325 326 326 327 328 328 329 330 331 331 331 331 330 330 331 331 331 332 332 333 334 334 334 335 335 334 334 334 334 335 335 336 336 335 334 333 333 333 333 334 335 335 335 335 334 333 333
313 314 314 315 315 316 316 317 317 317 318 318 318 318 319 319 319 319 319 319 319 319 320 320 320 321 321 322 322 322 323 323 323 324 324 324 325 325 325 326 326 327 327 328 329 330 331 331 332 331 331 331 331 331 331 332 333 333 334 335 335 336 336 336 335 335 335 335 335 336 337 337 336 335 334 333 333 333 334 335 336 336 336 336 335 334
313 314 314 315 315 316 316 316 317 317 317 318 318 318 318 318 318 318 319 319 319 319 320 320 320 321 321 322 322 322 323 323 323 324 324 325 325 325 326 326 327 328 328 329 330 331 331 332 332 332 332 331 331 331 332 333 333 334 335 336 336 336 337 337 336 335 335 335 335 336 337 338 337 337 336 335 334 334 335 336 337 338 338 337 337 337
313 314 314 315 315 316 316 316 317 317 317 317 318 318 318 318 318 318 318 319 319 319 320 320 321 321 321 322 322 322 323 323 324 324 324 325 325 325 326 327 328 329 329 330 331 332 332 332 332 332 332 332 332 332 332 333 334 335 336 336 337 337 337 337 337 336 335 335 335 336 337 338 338 338 337 336 335 335 336 337 339 340 340 339 339 338
313 314 314 315 315 315 316 316 316 317 317 317 317 317 317 318 318 318 318 319 319 319 320 320 321 321 321 322 322 322 323 323 324 324 325 325 325 326 327 328 329 330 331 331 332 332 333 333 332 332 332 333 333 333 333 333 334 335 336 337 338 338 338 338 338 336 335 334 334 335 337 338 339 339 339 338 336 336 336 338 340 341 342 341 341 340
Height
10604 10601 10599 10596 10594 10590 10587 10584 10582 10579 10575 10572 10569 10567 10564 10561 10558 10554 10551 10548 10544 10539 10535 10531 10527 10523 10519 10516 10512 10508 10503 10499 10494 10489 10484 10478 10473 10469 10464 10459 10454 10449 10443 10438 10431 10426 10419 10413 10406 10400 10393 10386 10379 10371 10364 10356 10349 10341 10334 10327 10319 10313 10305 10297 10289 10281 10273 10264 10256 10248 10239 10231 10223 10216 10208 10201 10193 10186 10179 10172 10166 10159 10154 10148 10143 10138
10599 10597 10594 10592 10589 10586 10581 10579 10576 10574 10571 10567 10564 10561 10558 10555 10552 10548 10545 10542 10538 10534 10531 10526 10522 10518 10513 10509 10506 10502 10497 10493 10488 10482 10477 10472 10466 10461 10457 10452 10447 10442 10436 10431 10424 10418 10412 10406 10399 10393 10386 10379 10372 10364 10357 10349 10342 10334 10326 10319 10311 10303 10296 10288 10279 10272 10264 10255 10247 10239 10231 10223 10215 10208 10200 10193 10186 10178 10171 10165 10159 10153 10147 10141 10136 10131
10595 10592 10589 10587 10584 10581 10577 10574 10571 10568 10566 10562 10559 10556 10553 10549 10546 10543 10539 10536 10533 10529 10525 10521 10517 10513 10508 10503 10499 10495 10491 10486 10481 10476 10470 10465 10460 10454 10450 10445 10440 10435 10429 10424 10418 10411 10405 10399 10392 10386 10379 10371 10364 10358 10351 10343 10335 10328 10319 10311 10303 10294 10286 10278 10270 10263 10254 10246 10238 10230 10222 10214 10206 10199 10192 10184 10178 10171 10164 10158 10151 10146 10141 10135 10130 10125
10591 10588 10584 10581 10579 10576 10573 10569 10566 10563 10560 10557 10554 10551 10548 10544 10541 10537 10534 10530 10527 10523 10519 10516 10511 10507 10502 10497 10493 10488 10484 10479 10474 10469 10464 10458 10453 10448 10443 10438 10433 10428 10423 10417 10411 10404 10398 10391 10384 10378 10371 10364 10357 10350 10343 10336 10328 10321 10313 10304 10296 10287 10278 10269 10261 10253 10245 10238 10229 10221 10214 10206 10198 10191 10184 10176 10169 10163 10156 10150 10144 10139 10134 10129 10124 10119
10586 10583 10580 10577 10574 10570 10567 10564 10561 10558 10554 10551 10548 10545 10542 10539 10535 10531 10528 10524 10521 10518 10514 10510 10506 10501 10496 10491 10486 10481 10477 10473 10468 10463 10457 10451 10446 10441 10436 10431 10426 10421 10416 10410 10404 10397 10391 10384 10377 10370 10363 10356 10349 10342 10334 10328 10320 10313 10304 10296 10288 10279 10271 10262 10253 10245 10237 10229 10221 10213 10206 10198 10190 10183 10176 10169 10162 10156 10149 10143 10138 10133 10127 10123 10118 10113
10581 10579 10576 10573 10569 10566 10563 10559 10556 10553 10549 10546 10543 10539 10537 10534 10531 10527 10523 10519 10516 10513 10509 10505 10501 10496 10491 10486 10480 10475 10470 10466 10461 10456 10451 10446 10439 10434 10429 10424 10419 10414 10408 10403 10396 10390 10383 10376 10369 10363 10355 10348 10341 10333 10326 10319 10311 10303 10296 10288 10279 10271 10263 10254 10246 10238 10229 10221 10213 10205 10198 10190 10183 10175 10168 10161 10154 10148 10142 10136 10131 10126 10121 10116 10111 10107
10576 10574 10571 10568 10564 10561 10558 10555 10552 10548 10544 10541 10536 10533 10531 10528 10525 10522 10519 10515 10511 10507 10503 10499 10494 10490 10486 10480 10474 10469 10464 10459 10454 10450 10445 10439 10434 10428 10423 10417 10412 10406 10401 10395 10389 10383 10376 10369 10362 10355 10348 10340 10333 10324 10317 10309 10302 10294 10286 10278 10270 10263 10254 10246 10238 10230 10221 10213 10205 10197 10189 10182 10174 10168 10161 10154 10148 10141 10135 10129 10124 10119 10114 10109 10105 10101
10571 10568 10566 10563 10561 10557 10554 10550 10548 10544 10541 10536 10531 10528 10524 10520 10518 10516 10513 10511 10507 10503 10498 10493 10488 10483 10478 10474 10469 10463 10458 10452 10448 10443 10438 10433 10426 10420 10414 10409 10404 10398 10393 10388 10382 10376 10369 10362 10355 10348 10340 10333 10324 10316 10309 10301 10293 10284 10276 10268 10261 10253 10246 10238 10230 10222 10214 10206 10198 10189 10182 10174 10167 10160 10153 10147 10141 10134 10129 10123 10118 10113 10108 10103 10099 10094
10568 10564 10561 10558 10556 10553 10549 10545 10542 10539 10536 10533 10528 10523 10519 10514 10510 10507 10505 10503 10501 10498 10493 10488 10482 10476 10471 10466 10461 10456 10451 10446 10441 10436 10431 10426 10420 10413 10407 10401 10395 10389 10384 10379 10373 10368 10361 10354 10348 10340 10333 10325 10317 10309 10301 10292 10284 10275 10267 10259 10251 10244 10236 10229 10221 10214 10206 10198 10191 10183 10175 10167 10160 10153 10146 10139 10134 10128 10122 10117 10112 10107 10102 10098 10093 10088
10563 10560 10556 10553 10551 10549 10546 10541 10537 10534 10531 10528 10524 10519 10515 10511 10506 10501 10497 10493 10491 10489 10487 10483 10478 10471 10464 10458 10452 10447 10443 10438 10433 10429 10424 10419 10414 10408 10401 10394 10388 10383 10377 10371 10365 10359 10354 10347 10339 10332 10325 10317 10309 10301 10292 10284 10275 10266 10258 10250 10243 10234 10228 10220 10213 10206 10198 10191 10183 10176 10168 10161 10153 10146 10139 10133 10126 10121 10115 10110 10105 10101 10096 10091 10087 10082
10558 10555 10553 10549 10546 10543 10541 10538 10534 10529 10526 10523 10519 10514 10511 10508 10504 10499 10493 10488 10483 10480 10478 10474 10471 10466 10460 10453 10445 10438 10433 10428 10424 10419 10415 10411 10406 10400 10394 10387 10381 10376 10370 10364 10358 10352 10346 10339 10332 10324 10317 10309 10301 10292 10284 10275 10266 10258 10250 10242 10234 10226 10219 10211 10204 10197 10190 10183 10176 10168 10161 10154 10146 10139 10133 10126 10120 10114 10109 10104 10099 10094 10090 10086 10081 10076
10554 10551 10548 10544 10541 10538 10535 10532 10528 10525 10521 10518 10514 10509 10505 10501 10498 10495 10491 10484 10479 10474 10471 10466 10462 10458 10454 10448 10441 10433 10425 10419 10414 10410 10406 10402 10397 10391 10384 10378 10371 10366 10361 10355 10348 10342 10337 10331 10323 10315 10308 10300 10293 10284 10275 10267 10258 10250 10242 10234 10226 10218 10211 10203 10196 10189 10182 10174 10168 10161 10154 10147 10140 10133 10127 10121 10114 10109 10103 10098 10094 10089 10084 10080 10076 10071
10549 10546 10543 10540 10536 10533 10530 10527 10523 10519 10516 10513 10509 10505 10501 10496 10493 10489 10485 10480 10475 10470 10466 10461 10456 10451 10447 10443 10436 10429 10420 10413 10406 10401 10398 10394 10389 10384 10376 10368 10361 10354 10350 10345 10338 10331 10326 10320 10313 10306 10298 10290 10283 10275 10266 10258 10250 10242 10234 10226 10219 10211 10204 10196 10189 10181 10174 10167 10159 10153 10146 10139 10133 10126 10120 10114 10108 10103 10098 10093 10088 10084 10079 10075 10071 10066
10544 10542 10538 10535 10531 10528 10525 10522 10518 10514 10511 10507 10504 10500 10496 10492 10488 10484 10480 10475 10469 10464 10460 10455 10449 10444 10440 10436 10432 10424 10416 10407 10399 10393 10388 10384 10380 10376 10369 10361 10352 10344 10339 10335 10329 10322 10315 10310 10304 10296 10289 10281 10273 10266 10258 10250 10242 10234 10226 10219 10211 10204 10196 10189 10182 10174 10167 10159 10153 10146 10139 10132 10126 10119 10113 10107 10101 10096 10091 10086 10082 10078 10073 10069 10065 10061
10540 10537 10534 10530 10526 10523 10520 10517 10513 10509 10506 10502 10499 10496 10491 10487 10483 10478 10474 10470 10464 10459 10454 10449 10443 10436 10431 10428 10426 10421 10413 10403 10393 10385 10379 10374 10370 10366 10361 10353 10344 10335 10329 10324 10319 10313 10306 10300 10294 10288 10280 10273 10265 10258 10249 10242 10234 10226 10219 10211 10204 10197 10189 10183 10175 10168 10161 10153 10146 10139 10133 10126 10119 10113 10106 10101 10095 10089 10084 10080 10075 10071 10067 10063 10059 10056
10536 10533 10529 10525 10521 10518 10514 10512 10509 10505 10501 10497 10494 10490 10486 10482 10478 10473 10469 10464 10459 10454 10449 10444 10438 10431 10424 10419 10416 10413 10408 10399 10389 10379 10372 10367 10362 10357 10353 10346 10337 10328 10320 10314 10309 10303 10298 10291 10284 10278 10271 10264 10256 10249 10242 10234 10226 10219 10211 10204 10197 10190 10183 10176 10168 10161 10154 10148 10140 10134 10127 10120 10113 10107 10101 10095 10089 10084 10079 10074 10069 10065 10061 10058 10054 10050
10531 10528 10524 10520 10516 10513 10509 10506 10503 10500 10496 10493 10489 10485 10481 10478 10473 10469 10464 10459 10454 10449 10444 10438 10433 10428 10421 10414 10409 10404 10400 10394 10384 10374 10366 10360 10354 10349 10344 10339 10331 10322 10314 10308 10302 10296 10289 10283 10276 10269 10263 10256 10248 10241 10234 10226 10219 10212 10204 10197 10190 10183 10176 10169 10162 10155 10148 10141 10134 10128 10121 10114 10108 10102 10096 10089 10084 10079 10074 10069 10064 10060 10056 10053 10049 10045
10526 10523 10519 10516 10511 10508 10504 10501 10498 10494 10491 10487 10483 10479 10476 10472 10468 10464 10459 10454 10449 10444 10438 10433 10428 10423 10418 10413 10406 10400 10395 10389 10381 10371 10362 10354 10348 10343 10337 10331 10323 10314 10306 10300 10294 10288 10281 10274 10268 10261 10254 10248 10241 10234 10226 10219 10212 10204 10197 10190 10183 10176 10169 10162 10155 10148 10142 10135 10129 10122 10116 10109 10103 10097 10091 10085 10079 10074 10069 10064 10059 10056 10051 10048 10044 10041
10520 10518 10514 10511 10507 10503 10499 10496 10493 10490 10486 10481 10478 10474 10470 10466 10461 10458 10453 10448 10443 10438 10433 10428 10423 10418 10413 10408 10403 10397 10391 10385 10377 10368 10359 10351 10344 10338 10332 10325 10316 10306 10298 10291 10285 10279 10273 10266 10259 10252 10246 10239 10233 10226 10218 10211 10204 10197 10190 10183 10175 10168 10161 10155 10148 10142 10135 10129 10123 10116 10110 10104 10098 10091 10086 10080 10074 10069 10064 10059 10055 10051 10047 10043 10040 10036
10515 10512 10509 10507 10503 10499 10494 10491 10488 10485 10481 10477 10473 10469 10464 10460 10456 10451 10446 10441 10436 10431 10426 10421 10416 10412 10407 10403 10398 10392 10386 10380 10373 10364 10355 10347 10340 10334 10328 10321 10311 10301 10291 10283 10276 10269 10263 10257 10250 10243 10236 10229 10223 10217 10210 10203 10196 10189 10183 10175 10168 10161 10154 10148 10141 10135 10129 10123 10116 10110 10104 10098 10092 10086 10080 10075 10069 10064 10059 10055 10051 10046 10043 10039 10036 10033
10511 10507 10504 10502 10499 10496 10491 10486 10483 10479 10476 10473 10468 10464 10459 10454 10449 10444 10439 10434 10429 10424 10418 10414 10409 10404 10400 10396 10391 10386 10380 10375 10368 10360 10351 10343 10334 10328 10322 10315 10306 10295 10284 10276 10268 10260 10253 10246 10241 10234 10228 10221 10214 10208 10203 10196 10189 10181 10174 10168 10161 10154 10147 10141 10134 10128 10122 10116 10110 10104 10098 10093 10086 10081 10075 10070 10064 10059 10055 10050 10046 10042 10039 10035 10032 10029
10506 10503 10499 10497 10494 10491 10486 10483 10478 10474 10471 10468 10463 10459 10454 10449 10444 10439 10433 10428 10422 10416 10411 10406 10401 10397 10393 10389 10385 10380 10376 10370 10364 10356 10348 10339 10330 10322 10315 10309 10299 10288 10278 10269 10261 10253 10244 10236 10230 10225 10219 10213 10206 10200 10194 10188 10181 10174 10166 10159 10153 10146 10140 10133 10127 10121 10116 10110 10104 10098 10093 10087 10081 10076 10070 10065 10060 10055 10051 10046 10042 10038 10035 10031 10028 10024
10503 10499 10496 10493 10489 10486 10482 10478 10474 10470 10466 10463 10459 10454 10449 10445 10440 10434 10428 10423 10416 10411 10405 10399 10394 10389 10385 10382 10378 10374 10369 10364 10358 10351 10342 10333 10324 10316 10310 10303 10294 10283 10271 10261 10253 10246 10236 10228 10221 10216 10211 10204 10198 10191 10185 10179 10172 10165 10158 10152 10145 10139 10133 10126 10120 10114 10109 10103 10098 10092 10086 10081 10076 10071 10065 10060 10056 10051 10046 10042 10038 10034 10031 10028 10024 10021
10498 10495 10491 10488 10484 10481 10477 10473 10469 10465 10461 10457 10453 10449 10444 10439 10434 10429 10424 10418 10413 10407 10401 10394 10388 10383 10377 10373 10369 10364 10360 10356 10350 10343 10335 10326 10317 10309 10303 10298 10289 10279 10266 10255 10246 10238 10229 10220 10213 10208 10203 10197 10191 10184 10177 10170 10163 10156 10150 10143 10137 10131 10125 10119 10113 10108 10102 10097 10091 10086 10081 10076 10070 10065 10061 10056 10051 10046 10042 10038 10034 10031 10028 10024 10021 10018
10494 10490 10486 10483 10479 10476 10472 10468 10464 10461 10456 10453 10448 10443 10438 10433 10428 10423 10418 10413 10408 10402 10395 10389 10382 10376 10370 10365 10361 10356 10351 10347 10341 10335 10328 10319 10310 10301 10294 10289 10283 10274 10263 10250 10240 10231 10223 10213 10204 10198 10193 10189 10183 10177 10169 10162 10155 10148 10141 10136 10129 10123 10118 10111 10106 10101 10096 10090 10085 10080 10075 10070 10065 10060 10056 10051 10046 10042 10038 10034 10030 10027 10024 10021 10018 10014
10489 10486 10482 10478 10474 10471 10467 10463 10459 10456 10451 10448 10443 10438 10433 10427 10421 10416 10411 10406 10401 10396 10390 10383 10376 10369 10363 10358 10353 10349 10344 10338 10333 10326 10320 10313 10304 10295 10288 10282 10276 10268 10258 10246 10235 10225 10217 10207 10197 10189 10183 10179 10175 10170 10163 10156 10148 10141 10134 10128 10123 10116 10111 10105 10099 10094 10089 10084 10079 10074 10069 10064 10059 10055 10050 10046 10042 10038 10034 10030 10026 10023 10020 10017 10014 10011
10484 10481 10477 10473 10469 10466 10462 10458 10454 10450 10446 10442 10438 10433 10428 10422 10416 10410 10404 10399 10396 10391 10385 10379 10373 10365 10358 10351 10345 10340 10336 10331 10325 10318 10312 10305 10298 10290 10283 10276 10269 10263 10254 10243 10231 10221 10212 10203 10194 10184 10176 10171 10167 10163 10157 10149 10142 10134 10128 10122 10116 10111 10104 10099 10094 10088 10083 10078 10073 10068 10063 10059 10054 10049 10045 10041 10037 10033 10029 10026 10023 10019 10016 10013 10010 10007
10479 10476 10472 10468 10464 10461 10457 10453 10449 10445 10441 10436 10432 10427 10421 10416 10411 10405 10399 10394 10390 10385 10379 10374 10368 10362 10354 10347 10340 10334 10329 10325 10320 10313 10306 10298 10290 10283 10276 10271 10264 10258 10250 10240 10228 10216 10206 10198 10190 10182 10173 10166 10160 10155 10150 10144 10137 10129 10123 10117 10111 10105 10099 10093 10088 10083 10078 10073 10068 10063 10058 10053 10049 10044 10041 10036 10033 10029 10025 10022 10019 10016 10013 10010 10006 10003
10474 10471 10467 10463 10459 10456 10451 10448 10443 10439 10435 10431 10426 10421 10416 10411 10406 10401 10395 10390 10385 10380 10374 10369 10363 10358 10351 10343 10336 10328 10322 10318 10314 10308 10301 10293 10283 10275 10269 10263 10256 10250 10245 10237 10226 10213 10201 10192 10185 10178 10171 10163 10156 10150 10144 10138 10131 10124 10118 10111 10106 10099 10094 10088 10083 10078 10072 10067 10062 10058 10053 10048 10044 10040 10036 10032 10028 10024 10021 10018 10014 10012 10009 10006 10003 10000
10469 10465 10461 10458 10454 10450 10446 10442 10438 10433 10429 10424 10419 10414 10409 10405 10400 10396 10391 10386 10381 10375 10369 10364 10358 10352 10346 10339 10331 10323 10314 10308 10304 10301 10295 10287 10278 10269 10263 10257 10250 10243 10238 10233 10224 10213 10199 10188 10179 10173 10166 10159 10152 10145 10139 10133 10126 10119 10113 10106 10101 10094 10089 10083 10078 10072 10067 10062 10057 10053 10048 10044 10039 10036 10031 10028 10024 10020 10017 10014 10011 10008 10006 10003 10000 9997
10463 10459 10456 10451 10448 10444 10440 10436 10432 10428 10423 10418 10414 10409 10404 10399 10394 10390 10385 10381 10376 10370 10364 10359 10353 10346 10341 10334 10328 10319 10311 10303 10297 10292 10288 10281 10273 10264 10258 10253 10246 10238 10231 10226 10220 10212 10201 10188 10177 10168 10161 10154 10148 10141 10134 10127 10121 10114 10108 10102 10096 10089 10084 10078 10073 10067 10062 10057 10053 10048 10044 10039 10035 10031 10028 10024 10020 10016 10013 10010 10008 10004 10002 9999 9997 9994
10458 10454 10450 10446 10443 10438 10434 10431 10426 10421 10417 10412 10407 10403 10398 10393 10389 10384 10379 10375 10370 10365 10359 10354 10347 10340 10334 10328 10322 10315 10308 10299 10293 10286 10281 10274 10266 10258 10251 10246 10240 10232 10224 10218 10212 10206 10198 10188 10177 10167 10158 10151 10143 10136 10129 10122 10116 10109 10103 10097 10091 10084 10079 10073 10068 10062 10057 10053 10048 10043 10039 10035 10031 10028 10024 10020 10016 10013 10009 10007 10004 10001 9999 9996 9994 9991
10453 10449 10445 10441 10437 10433 10429 10424 10420 10416 10411 10406 10401 10396 10391 10387 10383 10378 10373 10369 10364 10359 10354 10349 10342 10335 10327 10319 10313 10306 10299 10293 10287 10281 10275 10268 10261 10252 10245 10239 10233 10226 10218 10210 10203 10196 10189 10181 10173 10164 10155 10146 10139 10132 10125 10118 10111 10104 10099 10093 10086 10079 10074 10068 10063 10058 10053 10048 10043 10039 10035 10031 10028 10024 10020 10016 10013 10009 10006 10003 10001 9998 9996 9993 9991 9988
10448 10443 10439 10436 10431 10427 10423 10419 10414 10409 10404 10399 10394 10390 10385 10381 10376 10371 10367 10363 10358 10353 10349 10343 10338 10331 10323 10314 10306 10298 10289 10283 10278 10274 10268 10262 10254 10247 10239 10233 10226 10220 10213 10204 10196 10189 10182 10174 10167 10159 10151 10142 10134 10126 10120 10113 10106 10100 10094 10088 10082 10076 10069 10064 10058 10053 10048 10044 10039 10035 10031 10027 10023 10020 10016 10013 10009 10006 10003 10001 9998 9995 9993 9991 9988 9986
10442 10438 10434 10430 10426 10422 10417 10413 10408 10403 10398 10393 10388 10384 10379 10375 10370 10365 10361 10356 10351 10346 10341 10336 10331 10326 10319 10311 10303 10294 10284 10277 10271 10266 10261 10255 10249 10241 10233 10226 10219 10214 10207 10199 10191 10183 10176 10168 10161 10154 10147 10138 10129 10121 10114 10108 10102 10096 10089 10084 10078 10072 10066 10059 10054 10049 10044 10039 10035 10031 10027 10023 10020 10016 10013 10010 10006 10003 10000 9998 9995 9993 9991 9988 9986 9984
10437 10433 10429 10425 10421 10416 10411 10407 10402 10397 10392 10387 10382 10378 10374 10369 10364 10359 10354 10349 10344 10339 10333 10328 10323 10318 10312 10306 10299 10291 10283 10274 10266 10260 10254 10249 10243 10236 10228 10220 10213 10208 10201 10193 10185 10178 10170 10163 10155 10148 10141 10134 10126 10117 10109 10103 10096 10091 10084 10079 10073 10068 10062 10056 10051 10046 10041 10036 10031 10028 10024 10020 10017 10013 10010 10007 10004 10001 9998 9995 9993 9990 9988 9986 9984 9982
10432 10428 10424 10419 10416 10411 10406 10401 10396 10391 10386 10381 10376 10371 10367 10363 10358 10353 10348 10342 10336 10331 10326 10320 10315 10309 10304 10298 10292 10285 10278 10270 10263 10255 10249 10242 10236 10229 10222 10214 10207 10201 10194 10188 10181 10173 10165 10158 10150 10143 10135 10128 10121 10113 10106 10098 10091 10085 10079 10074 10069 10063 10058 10053 10048 10043 10038 10033 10028 10024 10021 10018 10014 10011 10008 10005 10002 9999 9996 9993 9990 9988 9986 9984 9982 9980
10427 10423 10418 10414 10410 10406 10401 10395 10390 10385 10380 10375 10371 10366 10361 10356 10351 10346 10341 10336 10330 10324 10318 10313 10307 10301 10296 10290 10284 10277 10270 10263 10256 10249 10242 10236 10229 10223 10216 10208 10200 10193 10187 10181 10174 10168 10160 10153 10145 10138 10131 10123 10116 10109 10102 10094 10088 10081 10075 10070 10065 10060 10055 10049 10044 10039 10034 10030 10026 10022 10018 10015 10011 10008 10006 10003 10000 9997 9994 9991 9988 9986 9984 9982 9980 9978
10421 10418 10413 10409 10405 10400 10395 10389 10384 10379 10374 10370 10365 10360 10356 10351 10345 10340 10335 10330 10324 10319 10313 10307 10301 10296 10290 10284 10278 10270 10263 10256 10249 10242 10235 10228 10222 10216 10209 10202 10194 10187 10180 10174 10168 10161 10154 10147 10140 10133 10126 10119 10111 10104 10097 10091 10084 10078 10071 10066 10061 10056 10052 10047 10042 10037 10032 10027 10023 10019 10016 10012 10009 10006 10003 10000 9998 9995 9992 9989 9987 9984 9982 9980 9979 9977
10416 10413 10408 10404 10399 10395 10390 10385 10380 10375 10370 10365 10360 10355 10350 10344 10339 10334 10328 10323 10318 10313 10306 10301 10294 10288 10283 10278 10272 10265 10258 10249 10242 10234 10228 10221 10214 10208 10203 10196 10189 10182 10175 10168 10161 10154 10148 10141 10134 10128 10121 10114 10107 10100 10093 10086 10080 10074 10068 10062 10057 10053 10048 10044 10039 10034 10029 10025 10021 10016 10013 10009 10006 10003 10000 9998 9995 9993 9990 9988 9985 9983 9981 9979 9977 9975
10412 10408 10403 10399 10394 10389 10384 10380 10375 10371 10366 10361 10356 10350 10345 10340 10334 10328 10322 10316 10310 10304 10298 10293 10286 10279 10273 10266 10261 10256 10251 10243 10236 10228 10221 10214 10208 10201 10196 10189 10183 10177 10169 10162 10155 10148 10142 10136 10129 10122 10116 10109 10103 10096 10089 10083 10077 10071 10065 10059 10054 10049 10046 10042 10038 10033 10028 10023 10018 10014 10010 10007 10004 10001 9998 9995 9993 9991 9988 9986 9984 9981 9979 9977 9976 9974
10407 10403 10398 10394 10389 10384 10379 10375 10371 10366 10361 10356 10351 10346 10341 10336 10331 10324 10318 10311 10305 10299 10292 10286 10279 10272 10264 10258 10251 10246 10241 10235 10229 10222 10214 10208 10201 10194 10189 10183 10177 10171 10164 10158 10150 10143 10136 10129 10123 10117 10111 10104 10098 10091 10084 10079 10073 10068 10063 10057 10052 10047 10043 10039 10035 10031 10026 10021 10016 10012 10008 10004 10001 9998 9995 9993 9990 9988 9986 9984 9982 9980 9978 9976 9974 9973
10401 10398 10393 10389 10384 10379 10375 10371 10366 10361 10357 10352 10347 10342 10337 10332 10327 10321 10315 10308 10302 10295 10289 10282 10274 10267 10259 10251 10244 10238 10231 10226 10220 10214 10208 10201 10194 10188 10183 10176 10171 10165 10159 10153 10146 10138 10130 10123 10117 10111 10106 10099 10093 10087 10081 10075 10069 10064 10059 10054 10049 10044 10039 10034 10031 10028 10024 10019 10015 10011 10006 10003 9999 9996 9993 9990 9988 9986 9984 9982 9980 9978 9976 9974 9973 9971
10397 10393 10388 10384 10379 10375 10371 10366 10361 10357 10353 10348 10343 10338 10333 10328 10323 10318 10311 10305 10298 10291 10285 10278 10271 10263 10254 10245 10238 10231 10224 10217 10211 10206 10200 10194 10188 10182 10176 10170 10164 10158 10153 10147 10141 10133 10125 10118 10111 10104 10099 10094 10089 10083 10077 10071 10066 10061 10056 10052 10047 10042 10037 10032 10028 10024 10021 10017 10013 10009 10004 10001 9997 9994 9991 9988 9986 9984 9982 9981 9979 9977 9975 9973 9971 9969
10393 10388 10383 10379 10374 10371 10366 10361 10357 10353 10348 10343 10338 10334 10328 10323 10318 10313 10308 10301 10294 10288 10281 10274 10268 10259 10250 10241 10233 10225 10217 10209 10203 10197 10191 10186 10180 10174 10169 10164 10158 10153 10147 10141 10135 10129 10121 10113 10106 10099 10093 10088 10084 10079 10074 10068 10063 10058 10053 10049 10044 10039 10034 10030 10025 10021 10018 10014 10011 10007 10003 9999 9996 9993 9989 9986 9984 9983 9981 9979 9977 9975 9974 9972 9970 9969
10388 10383 10379 10374 10370 10366 10361 10357 10353 10348 10343 10339 10334 10329 10324 10319 10314 10308 10302 10296 10290 10284 10276 10269 10263 10256 10248 10239 10231 10223 10214 10206 10198 10191 10184 10178 10173 10167 10162 10156 10151 10146 10141 10135 10129 10123 10117 10109 10101 10094 10088 10082 10078 10074 10069 10064 10059 10054 10049 10045 10041 10036 10031 10027 10023 10019 10015 10011 10008 10005 10002 9998 9994 9991 9988 9985 9983 9981 9979 9978 9976 9974 9973 9971 9969 9968
10383 10379 10374 10370 10366 10361 10357 10353 10348 10344 10339 10334 10329 10324 10320 10315 10309 10303 10296 10290 10284 10278 10271 10264 10258 10251 10244 10237 10229 10221 10213 10204 10196 10189 10181 10174 10168 10161 10155 10150 10144 10139 10134 10129 10124 10118 10112 10105 10098 10090 10083 10077 10072 10068 10064 10060 10056 10051 10046 10041 10037 10033 10029 10024 10020 10016 10013 10009 10006 10003 10001 9998 9994 9991 9987 9984 9982 9979 9978 9976 9974 9973 9971 9969 9968 9966
10379 10374 10370 10366 10361 10357 10352 10348 10343 10339 10334 10329 10324 10319 10314 10310 10304 10299 10292 10285 10279 10273 10266 10259 10252 10245 10238 10231 10225 10218 10211 10203 10195 10188 10180 10173 10165 10158 10151 10144 10139 10133 10128 10123 10118 10113 10108 10101 10094 10088 10080 10073 10067 10063 10059 10055 10051 10048 10043 10039 10034 10030 10026 10022 10018 10014 10011 10008 10004 10002 9999 9996 9993 9989 9986 9983 9981 9979 9977 9975 9974 9972 9970 9969 9967 9966
10375 10371 10366 10361 10357 10353 10348 10343 10339 10334 10329 10324 10319 10314 10309 10304 10299 10294 10288 10281 10274 10268 10261 10255 10248 10241 10233 10226 10219 10213 10206 10199 10192 10184 10178 10170 10163 10156 10148 10141 10134 10128 10121 10116 10111 10107 10102 10097 10091 10085 10078 10071 10064 10058 10054 10051 10048 10044 10040 10036 10033 10028 10024 10020 10016 10013 10009 10005 10003 10000 9998 9995 9993 9989 9986 9983 9980 9978 9976 9974 9973 9971 9969 9968 9966 9965
10370 10366 10362 10358 10353 10349 10344 10339 10334 10329 10325 10320 10315 10309 10304 10298 10293 10288 10282 10276 10269 10263 10256 10250 10244 10237 10229 10222 10215 10208 10202 10195 10188 10181 10174 10167 10160 10153 10145 10138 10131 10124 10117 10110 10104 10099 10094 10090 10086 10081 10076 10069 10063 10056 10050 10046 10043 10040 10038 10034 10031 10027 10023 10019 10015 10011 10007 10004 10001 9999 9996 9994 9992 9989 9986 9983 9979 9977 9975 9973 9972 9970 9969 9967 9966 9964
10366 10362 10358 10354 10349 10344 10340 10335 10331 10326 10321 10316 10310 10305 10299 10294 10288 10282 10276 10269 10263 10257 10250 10244 10238 10231 10225 10218 10211 10204 10198 10191 10184 10178 10170 10163 10156 10150 10143 10136 10129 10121 10114 10107 10101 10094 10089 10084 10079 10075 10071 10068 10061 10055 10048 10043 10039 10036 10033 10031 10028 10025 10022 10018 10014 10010 10006 10002 9999 9997 9995 9993 9991 9988 9985 9982 9979 9976 9974 9973 9971 9969 9968 9966 9965 9964